CW6575 Weather Reports


Display with metric or nautical units.
time (UTC)temp
F
wind
direction
speed
MPH
gust
MPH
rain 1hr
in
rain 24hr
in
rain mn
in
humidity
%
barometer
mb
20260509004606 54 157 1.0 3.0 0.00 0.00 0.00 64 1011.6
20260509003052 55 147 2.0 4.0 0.00 0.00 0.00 61 1011.7
20260509001553 59 315 0.0 0.0 0.00 0.00 0.00 51 1011.8
20260509000049 61 315 0.0 3.0 0.00 0.00 0.00 44 1011.7
20260508234549 61 243 0.0 0.0 0.00 0.00 0.00 44 1011.7
20260508233048 62 272 0.0 3.0 0.00 0.00 0.00 43 1011.5
20260508231548 62 307 0.0 2.0 0.00 0.00 0.00 41 1011.4
20260508230051 64 302 1.0 3.0 0.00 0.00 0.00 37 1011.2
20260508224551 65 310 1.0 5.0 0.00 0.00 0.00 37 1011.1
20260508223050 66 317 0.0 3.0 0.00 0.00 0.00 35 1011.3
20260508221544 66 275 1.0 6.0 0.00 0.00 0.00 37 1011.4
20260508220041 66 327 0.0 5.0 0.00 0.00 0.00 36 1011.5
20260508214556 65 166 2.0 6.0 0.00 0.00 0.00 38 1011.5
20260508213038 65 5 3.0 8.0 0.00 0.00 0.00 37 1011.6
20260508211538 65 333 1.0 7.0 0.00 0.00 0.00 39 1011.7
20260508210037 65 56 2.0 6.0 0.00 0.00 0.00 41 1011.8
20260508204535 64 327 3.0 6.0 0.00 0.00 0.00 40 1012.1
20260508203031 65 36 1.0 8.0 0.00 0.00 0.00 41 1012.3
20260508201527 64 336 3.0 8.0 0.00 0.00 0.00 42 1012.4
20260508200027 64 317 3.0 7.0 0.00 0.00 0.00 42 1012.7
20260508194523 63 343 2.0 8.0 0.00 0.00 0.00 40 1013.0
20260508193019 63 348 3.0 10.0 0.00 0.00 0.00 39 1013.4
20260508191519 62 300 4.0 11.0 0.00 0.00 0.00 42 1013.4
20260508190116 63 250 1.0 6.0 0.00 0.00 0.00 42 1013.6
20260508184527 61 317 1.0 6.0 0.00 0.00 0.00 44 1013.8
20260508183027 62 331 3.0 6.0 0.00 0.00 0.00 46 1014.1
20260508181511 63 300 3.0 8.0 0.00 0.00 0.00 43 1014.2
20260508180010 63 321 3.0 11.0 0.00 0.00 0.00 42 1014.3
20260508174507 62 311 1.0 9.0 0.00 0.00 0.00 46 1014.5
20260508173005 61 294 1.0 6.0 0.00 0.00 0.00 44 1014.6
20260508171504 59 331 0.0 5.0 0.00 0.00 0.00 49 1014.8
20260508170004 61 320 3.0 9.0 0.00 0.00 0.00 46 1015.2
20260508164702 60 325 2.0 10.0 0.00 0.00 0.00 43 1015.4
20260508163058 59 355 1.0 6.0 0.00 0.00 0.00 46 1015.4
20260508161605 58 307 2.0 8.0 0.00 0.00 0.00 45 1015.7
20260508160056 58 324 3.0 9.0 0.00 0.00 0.00 43 1016.0
20260508154554 58 338 4.0 9.0 0.00 0.00 0.00 46 1016.0
20260508153057 58 337 1.0 8.0 0.00 0.00 0.00 48 1015.8
20260508151553 58 355 2.0 6.0 0.00 0.00 0.00 44 1016.0
20260508150050 57 221 2.0 8.0 0.00 0.00 0.00 44 1016.0
20260508144647 56 252 2.0 9.0 0.00 0.00 0.00 47 1016.2
20260508143047 55 338 3.0 11.0 0.00 0.00 0.00 49 1016.2
20260508141547 54 329 3.0 9.0 0.00 0.00 0.00 51 1016.3
20260508140035 52 317 4.0 12.0 0.00 0.00 0.00 51 1016.3
20260508134535 51 134 1.0 10.0 0.00 0.00 0.00 57 1016.3
20260508133031 49 144 4.0 8.0 0.00 0.00 0.00 59 1016.3
20260508131525 47 140 3.0 8.0 0.00 0.00 0.00 61 1016.4
20260508130031 45 162 4.0 9.0 0.00 0.00 0.00 65 1016.4
20260508124518 44 148 6.0 11.0 0.00 0.00 0.00 67 1016.5
20260508123016 42 164 4.0 10.0 0.00 0.00 0.00 74 1016.4
20260508121509 40 148 7.0 10.0 0.00 0.00 0.00 76 1016.4
20260508120006 40 173 6.0 11.0 0.00 0.00 0.00 78 1016.4
20260508114505 39 144 6.0 10.0 0.00 0.00 0.00 79 1016.3
20260508113004 38 158 5.0 9.0 0.00 0.00 0.00 87 1016.3
20260508111505 35 143 2.0 4.0 0.00 0.00 0.00 90 1016.2
20260508110002 34 155 2.0 5.0 0.00 0.00 0.00 91 1016.0
20260508104600 33 153 2.0 3.0 0.00 0.00 0.00 91 1015.9
20260508103111 33 156 0.0 3.0 0.00 0.00 0.00 91 1015.7
20260508101559 33 155 2.0 5.0 0.00 0.00 0.00 90 1015.6
20260508100055 33 155 0.0 2.0 0.00 0.00 0.00 89 1015.4
20260508094553 34 155 0.0 7.0 0.00 0.00 0.00 89 1015.3
20260508093101 34 153 2.0 6.0 0.00 0.00 0.00 89 1015.2
20260508091551 34 165 0.0 5.0 0.00 0.00 0.00 89 1015.3
20260508090057 34 149 1.0 5.0 0.00 0.00 0.00 88 1015.1
20260508084546 34 145 1.0 3.0 0.00 0.02 0.00 88 1015.3
20260508083048 35 153 1.0 6.0 0.00 0.02 0.00 88 1015.0
20260508081542 35 145 2.0 3.0 0.00 0.02 0.00 88 1014.9
20260508080040 35 149 2.0 6.0 0.00 0.02 0.00 88 1014.8
20260508074540 35 150 2.0 6.0 0.00 0.03 0.00 88 1014.7
20260508073041 35 169 2.0 6.0 0.00 0.03 0.00 88 1014.7
20260508071536 35 153 0.0 5.0 0.00 0.03 0.00 88 1014.8
20260508070033 36 159 1.0 3.0 0.00 0.03 0.00 86 1014.8
20260508064539 36 147 3.0 5.0 0.00 0.03 0.00 87 1014.7
20260508063037 36 169 0.0 3.0 0.00 0.03 0.00 86 1014.6
20260508061530 36 147 2.0 5.0 0.00 0.03 0.00 86 1014.5
20260508060026 37 163 1.0 5.0 0.00 0.03 0.00 85 1014.6
20260508054525 37 159 2.0 6.0 0.00 0.03 0.00 85 1014.8
20260508053023 38 163 1.0 5.0 0.00 0.03 0.00 84 1015.0
20260508051521 38 169 4.0 6.0 0.00 0.03 0.00 84 1014.9
20260508050032 38 153 4.0 6.0 0.00 0.03 0.00 84 1014.8
20260508044517 39 161 3.0 7.0 0.00 0.04 0.00 83 1014.8
20260508043015 39 153 2.0 6.0 0.00 0.04 0.00 83 1014.6
20260508041512 39 159 0.0 6.0 0.00 0.04 0.00 83 1014.5
20260508040009 40 154 1.0 5.0 0.00 0.04 0.00 82 1014.3
20260508034506 40 156 1.0 6.0 0.00 0.05 0.04 82 1014.0
20260508033008 40 150 2.0 4.0 0.00 0.05 0.04 82 1013.9
20260508031500 41 142 0.0 3.0 0.00 0.05 0.04 81 1013.7
20260508030100 41 161 3.0 5.0 0.00 0.05 0.04 81 1013.5
20260508024556 41 144 2.0 3.0 0.00 0.05 0.04 83 1013.3
20260508023053 42 140 0.0 2.0 0.00 0.05 0.04 84 1013.3
20260508021555 42 140 0.0 3.0 0.00 0.05 0.04 81 1013.1
20260508020050 44 331 1.0 3.0 0.00 0.05 0.04 78 1012.9
20260508014544 0 0.0 0.0 0.00 0.06 0.04 1012.8
20260508013052 50 277 1.0 7.0 0.00 0.06 0.04 53 1012.6
20260508011543 50 288 0.0 4.0 0.00 0.06 0.04 54 1012.3
20260508010040 51 306 0.0 4.0 0.00 0.06 0.04 54 1012.2